Temp
-7 -7 -7 -7 -7 -7 -7 -6 -7 -7 -7 -7 -7 -7 -7 -7 -7 -7 -7 -7 -7 -7 -7 -7 -7 -7 -6 -6 -6 -6 -6 -6 -6 -6 -6 -6 -5 -5 -5 -5 -5 -5 -5 -5 -5 -5 -5 -5 -5
-7 -8 -8 -7 -7 -7 -6 -7 -7 -7 -7 -7 -7 -7 -7 -7 -7 -7 -7 -7 -7 -7 -7 -7 -8 -7 -7 -7 -7 -7 -7 -7 -6 -6 -6 -6 -6 -5 -5 -5 -5 -5 -5 -5 -5 -5 -5 -5 -5
-8 -8 -8 -7 -7 -7 -7 -7 -7 -7 -6 -6 -6 -7 -7 -7 -7 -7 -8 -7 -7 -7 -7 -8 -8 -8 -8 -7 -7 -7 -7 -7 -7 -7 -7 -7 -7 -6 -6 -5 -5 -5 -5 -5 -5 -5 -5 -5 -5
-8 -8 -7 -7 -7 -7 -7 -7 -7 -6 -6 -7 -7 -7 -7 -7 -7 -7 -8 -8 -8 -8 -7 -8 -8 -8 -8 -8 -8 -7 -8 -8 -7 -7 -7 -7 -7 -7 -6 -6 -6 -5 -5 -5 -5 -5 -5 -5 -5
-8 -8 -8 -7 -7 -7 -7 -7 -6 -6 -6 -7 -7 -7 -7 -7 -8 -8 -8 -9 -9 -9 -9 -8 -8 -9 -9 -9 -9 -8 -8 -8 -8 -7 -7 -7 -7 -7 -7 -6 -6 -5 -5 -5 -5 -5 -5 -5 -5
-8 -8 -7 -7 -7 -7 -7 -7 -7 -6 -7 -7 -7 -7 -8 -8 -8 -8 -9 -9 -10 -10 -10 -9 -9 -9 -9 -9 -9 -9 -8 -8 -8 -8 -7 -7 -7 -7 -7 -7 -6 -6 -5 -5 -5 -5 -5 -5 -5
-8 -8 -7 -7 -7 -7 -7 -7 -7 -7 -7 -7 -8 -8 -8 -9 -9 -9 -9 -10 -10 -11 -11 -10 -11 -10 -10 -9 -10 -9 -8 -8 -8 -8 -8 -7 -7 -7 -7 -7 -7 -6 -6 -5 -6 -5 -5 -5 -5
-8 -8 -7 -7 -7 -7 -7 -7 -6 -7 -7 -8 -8 -9 -9 -10 -10 -10 -10 -11 -12 -12 -12 -11 -11 -11 -11 -10 -10 -10 -9 -9 -8 -8 -8 -8 -7 -7 -7 -7 -7 -7 -6 -6 -6 -6 -6 -6 -6
-8 -7 -7 -7 -7 -7 -7 -7 -7 -7 -8 -8 -9 -9 -9 -10 -11 -11 -12 -12 -13 -13 -13 -13 -12 -12 -12 -11 -10 -9 -9 -7 -8 -8 -8 -8 -8 -8 -8 -8 -7 -7 -7 -7 -6 -6 -6 -6 -6
-7 -7 -7 -7 -7 -7 -7 -7 -7 -7 -8 -8 -9 -9 -10 -11 -12 -12 -13 -13 -13 -14 -13 -13 -13 -13 -12 -11 -11 -10 -10 -9 -8 -9 -9 -8 -8 -8 -8 -8 -8 -8 -7 -7 -7 -7 -6 -6 -6
-8 -8 -8 -8 -8 -7 -7 -7 -7 -8 -8 -8 -9 -9 -10 -11 -12 -13 -13 -14 -14 -14 -14 -13 -13 -13 -12 -11 -11 -11 -10 -9 -9 -9 -9 -9 -9 -9 -8 -8 -8 -8 -8 -8 -7 -7 -7 -6 -6
-8 -8 -8 -8 -8 -7 -7 -7 -8 -8 -8 -9 -9 -10 -10 -11 -12 -13 -13 -14 -14 -15 -14 -14 -14 -13 -13 -12 -12 -11 -10 -10 -9 -9 -9 -9 -9 -10 -9 -9 -8 -8 -8 -8 -8 -7 -7 -7 -7
-8 -8 -8 -8 -8 -8 -8 -8 -8 -8 -8 -9 -10 -10 -11 -12 -13 -13 -14 -14 -14 -14 -15 -14 -14 -14 -13 -13 -13 -12 -11 -10 -11 -10 -10 -9 -9 -9 -10 -9 -9 -8 -8 -8 -8 -8 -7 -7 -7
-8 -8 -8 -8 -8 -8 -8 -8 -8 -8 -9 -9 -10 -11 -12 -12 -13 -14 -14 -14 -14 -14 -14 -14 -14 -14 -13 -13 -13 -12 -12 -11 -11 -12 -10 -10 -10 -9 -10 -9 -9 -9 -9 -9 -9 -8 -8 -8 -8
-8 -8 -8 -8 -8 -8 -8 -8 -8 -8 -9 -10 -11 -11 -12 -12 -13 -13 -14 -14 -14 -14 -14 -14 -14 -14 -13 -13 -13 -13 -12 -12 -12 -12 -12 -11 -10 -10 -10 -11 -9 -9 -9 -9 -9 -9 -9 -8 -8
-9 -8 -8 -8 -8 -8 -9 -9 -8 -9 -9 -10 -11 -12 -12 -12 -13 -14 -14 -14 -14 -15 -15 -14 -14 -14 -13 -13 -13 -13 -13 -12 -12 -12 -12 -12 -12 -10 -10 -11 -10 -9 -9 -9 -9 -9 -9 -9 -9
-9 -8 -8 -8 -8 -9 -9 -9 -9 -9 -10 -10 -11 -12 -12 -13 -14 -13 -14 -15 -15 -15 -15 -15 -15 -14 -14 -13 -13 -13 -13 -12 -12 -12 -11 -11 -11 -11 -10 -10 -11 -10 -10 -10 -10 -10 -9 -9 -9
-9 -9 -9 -8 -9 -9 -9 -9 -9 -10 -10 -11 -11 -12 -13 -14 -14 -15 -15 -15 -15 -15 -16 -15 -15 -14 -14 -14 -14 -14 -13 -13 -12 -12 -11 -10 -9 -10 -10 -10 -11 -11 -10 -10 -10 -10 -10 -9 -9
-9 -9 -9 -9 -9 -9 -9 -9 -9 -10 -10 -11 -11 -12 -13 -14 -15 -15 -17 -17 -16 -16 -16 -16 -14 -15 -14 -14 -14 -14 -13 -13 -12 -12 -10 -9 -9 -10 -10 -11 -12 -12 -10 -10 -10 -10 -10 -10 -10
-9 -9 -9 -9 -9 -9 -9 -10 -10 -10 -10 -11 -11 -12 -13 -14 -15 -16 -17 -17 -17 -16 -17 -15 -14 -15 -14 -14 -14 -13 -13 -12 -11 -11 -10 -9 -10 -10 -10 -10 -12 -12 -11 -10 -10 -10 -10 -10 -10
-9 -9 -9 -9 -9 -9 -9 -10 -10 -10 -10 -11 -11 -12 -13 -14 -14 -15 -16 -16 -16 -16 -16 -15 -15 -14 -14 -14 -14 -13 -13 -12 -11 -10 -11 -9 -10 -11 -11 -10 -12 -12 -12 -11 -11 -10 -11 -10 -10
-10 -10 -9 -9 -9 -9 -10 -10 -10 -10 -10 -11 -11 -12 -13 -14 -14 -15 -15 -16 -16 -16 -15 -15 -15 -14 -14 -14 -13 -13 -13 -11 -11 -11 -11 -9 -10 -11 -11 -11 -12 -12 -12 -12 -12 -11 -11 -11 -11
-10 -10 -10 -10 -10 -9 -10 -10 -10 -10 -10 -11 -11 -12 -13 -14 -15 -14 -15 -15 -15 -15 -15 -15 -15 -14 -14 -14 -13 -13 -12 -11 -11 -11 -11 -10 -10 -11 -11 -11 -12 -13 -12 -12 -12 -11 -11 -11 -11
-10 -10 -10 -10 -10 -10 -10 -10 -10 -10 -10 -11 -11 -12 -13 -14 -14 -15 -14 -15 -15 -15 -15 -15 -14 -14 -14 -14 -13 -13 -12 -12 -12 -11 -11 -11 -11 -11 -11 -11 -12 -12 -11 -11 -11 -11 -11 -11 -11
-10 -10 -10 -10 -10 -10 -10 -10 -10 -10 -10 -11 -11 -12 -12 -13 -14 -14 -15 -14 -15 -15 -15 -15 -15 -15 -15 -15 -14 -13 -13 -12 -12 -12 -11 -11 -11 -11 -11 -11 -11 -11 -11 -12 -12 -11 -11 -11 -11
-10 -10 -10 -10 -10 -10 -10 -10 -10 -10 -10 -11 -11 -12 -12 -13 -13 -14 -14 -14 -14 -15 -15 -14 -15 -15 -15 -15 -14 -13 -13 -13 -12 -12 -12 -12 -12 -12 -11 -12 -11 -11 -11 -12 -11 -11 -11 -11 -11
-11 -10 -10 -10 -10 -10 -10 -10 -10 -10 -10 -11 -11 -11 -12 -12 -13 -13 -13 -13 -14 -14 -14 -14 -15 -15 -15 -15 -15 -15 -14 -13 -13 -12 -12 -14 -12 -12 -12 -12 -12 -11 -12 -11 -11 -11 -11 -12 -11
-11 -11 -10 -10 -10 -10 -10 -10 -10 -10 -10 -11 -11 -11 -12 -12 -13 -13 -13 -13 -13 -14 -14 -14 -14 -14 -15 -15 -15 -14 -14 -14 -14 -14 -14 -14 -13 -12 -13 -12 -12 -12 -12 -11 -12 -12 -11 -12 -12
-11 -10 -10 -10 -10 -10 -10 -10 -10 -10 -10 -11 -11 -11 -11 -12 -13 -13 -13 -13 -13 -14 -14 -14 -14 -15 -14 -15 -15 -15 -15 -15 -14 -14 -14 -14 -13 -13 -13 -13 -12 -12 -12 -12 -12 -12 -12 -12 -12
-11 -10 -10 -10 -10 -10 -10 -10 -10 -10 -10 -11 -11 -11 -11 -11 -12 -13 -13 -13 -13 -14 -14 -14 -14 -14 -14 -14 -14 -14 -15 -14 -15 -14 -14 -14 -14 -14 -13 -13 -13 -13 -13 -13 -13 -12 -12 -12 -12
Height
5872 5872 5874 5875 5878 5874 5874 5877 5877 5877 5877 5877 5878 5878 5878 5877 5879 5880 5877 5877 5877 5878 5878 5879 5880 5881 5881 5881 5882 5884 5884 5884 5885 5886 5886 5888 5889 5890 5890 5891 5892 5893 5894 5895 5896 5895 5895 5896 5895
5869 5870 5871 5873 5874 5871 5873 5874 5873 5873 5875 5874 5874 5873 5873 5872 5872 5873 5874 5873 5873 5873 5873 5874 5874 5876 5877 5878 5878 5879 5881 5882 5882 5883 5884 5885 5886 5887 5888 5889 5890 5891 5893 5894 5894 5894 5895 5895 5895
5867 5869 5869 5869 5870 5870 5871 5871 5870 5869 5869 5869 5870 5869 5868 5867 5866 5865 5866 5867 5868 5867 5867 5868 5869 5870 5872 5872 5874 5875 5877 5878 5879 5880 5881 5882 5883 5885 5885 5887 5888 5889 5890 5892 5893 5893 5893 5893 5894
5865 5866 5867 5866 5866 5867 5868 5867 5866 5866 5866 5865 5865 5865 5864 5863 5861 5860 5859 5859 5860 5860 5860 5861 5863 5865 5866 5867 5869 5871 5872 5874 5876 5877 5879 5880 5881 5882 5883 5884 5885 5887 5888 5889 5890 5891 5892 5892 5892
5861 5861 5862 5861 5863 5863 5864 5864 5863 5862 5862 5861 5860 5859 5858 5857 5856 5855 5853 5852 5851 5852 5852 5853 5855 5858 5860 5862 5863 5865 5867 5869 5871 5873 5875 5877 5879 5879 5880 5882 5882 5884 5886 5887 5888 5889 5890 5891 5891
5857 5858 5858 5858 5859 5859 5860 5860 5860 5858 5857 5856 5855 5854 5852 5851 5849 5847 5845 5844 5843 5843 5844 5845 5845 5850 5853 5855 5857 5859 5862 5864 5865 5868 5870 5873 5875 5877 5878 5879 5880 5881 5882 5884 5886 5887 5889 5890 5890
5855 5855 5854 5855 5855 5855 5856 5856 5855 5854 5853 5851 5848 5846 5846 5843 5841 5838 5835 5834 5833 5834 5835 5836 5837 5839 5845 5849 5851 5853 5855 5858 5860 5862 5864 5868 5870 5872 5874 5875 5878 5879 5880 5881 5882 5885 5886 5888 5889
5852 5852 5851 5851 5852 5852 5852 5852 5850 5849 5847 5845 5843 5841 5837 5833 5829 5827 5825 5824 5824 5825 5826 5827 5828 5832 5837 5840 5843 5847 5850 5853 5855 5856 5858 5861 5864 5867 5868 5871 5874 5876 5877 5878 5880 5882 5884 5886 5887
5848 5848 5847 5848 5848 5848 5847 5846 5845 5843 5841 5839 5836 5833 5830 5825 5821 5817 5814 5814 5816 5816 5817 5819 5819 5822 5827 5830 5836 5841 5842 5836 5846 5849 5852 5855 5858 5861 5863 5866 5869 5872 5875 5876 5877 5878 5881 5883 5884
5844 5844 5844 5845 5844 5843 5842 5841 5839 5837 5834 5831 5827 5824 5820 5815 5811 5807 5805 5804 5806 5806 5808 5811 5811 5813 5817 5822 5827 5834 5835 5833 5831 5834 5843 5848 5851 5854 5857 5859 5864 5867 5871 5872 5874 5875 5878 5880 5881
5840 5841 5841 5841 5840 5838 5837 5836 5833 5830 5827 5823 5818 5814 5809 5805 5801 5798 5796 5795 5794 5796 5798 5801 5803 5805 5807 5812 5816 5822 5825 5828 5821 5829 5832 5838 5842 5848 5851 5854 5857 5862 5866 5869 5871 5872 5874 5877 5878
5837 5837 5838 5837 5835 5833 5832 5830 5827 5823 5820 5815 5810 5805 5799 5795 5791 5789 5787 5785 5786 5785 5786 5790 5794 5796 5799 5802 5807 5811 5816 5816 5813 5816 5822 5826 5833 5840 5845 5849 5852 5857 5860 5863 5867 5869 5871 5874 5875
5833 5834 5834 5832 5830 5828 5826 5824 5821 5816 5812 5808 5802 5797 5792 5787 5783 5779 5776 5775 5775 5776 5777 5779 5783 5787 5790 5794 5797 5801 5804 5804 5804 5809 5808 5817 5822 5829 5836 5842 5845 5851 5855 5858 5862 5865 5867 5870 5872
5829 5830 5829 5827 5825 5823 5821 5817 5814 5810 5805 5801 5795 5790 5784 5778 5774 5770 5766 5765 5765 5766 5767 5769 5772 5776 5781 5784 5788 5792 5795 5798 5801 5798 5800 5811 5816 5820 5824 5835 5838 5845 5849 5853 5857 5860 5863 5865 5867
5825 5825 5824 5822 5820 5818 5815 5811 5808 5803 5799 5794 5788 5781 5774 5768 5763 5759 5756 5754 5754 5755 5756 5759 5761 5767 5770 5774 5780 5783 5787 5789 5791 5794 5794 5803 5809 5815 5818 5826 5833 5839 5843 5848 5852 5855 5858 5861 5863
5821 5820 5819 5817 5815 5813 5810 5805 5801 5797 5792 5787 5780 5772 5765 5758 5752 5747 5745 5743 5742 5744 5745 5748 5752 5756 5760 5764 5770 5773 5777 5781 5784 5790 5793 5800 5803 5808 5814 5820 5827 5833 5837 5841 5846 5850 5853 5856 5858
5816 5815 5814 5812 5810 5807 5805 5800 5796 5792 5787 5781 5773 5765 5757 5748 5740 5734 5731 5730 5730 5730 5734 5738 5742 5747 5751 5756 5761 5764 5767 5773 5776 5781 5786 5793 5800 5802 5808 5812 5819 5827 5831 5836 5841 5845 5848 5851 5853
5812 5810 5809 5808 5806 5802 5799 5795 5792 5788 5782 5775 5768 5759 5748 5738 5729 5721 5716 5712 5715 5717 5722 5727 5733 5739 5744 5749 5753 5758 5760 5764 5768 5775 5781 5786 5792 5794 5798 5805 5812 5820 5826 5831 5836 5839 5843 5846 5848
5806 5805 5804 5803 5801 5797 5794 5790 5787 5783 5778 5770 5763 5752 5741 5729 5717 5706 5699 5698 5701 5706 5712 5717 5725 5732 5738 5743 5747 5753 5756 5760 5761 5767 5775 5782 5786 5789 5792 5797 5807 5815 5821 5825 5830 5834 5838 5841 5842
5801 5800 5799 5798 5796 5793 5790 5786 5783 5778 5773 5766 5758 5748 5737 5724 5709 5697 5687 5687 5693 5699 5704 5712 5720 5728 5733 5738 5743 5748 5752 5755 5758 5761 5768 5775 5782 5787 5790 5795 5801 5808 5815 5820 5826 5830 5834 5836 5838
5796 5795 5794 5794 5792 5789 5785 5784 5780 5775 5769 5763 5755 5745 5733 5722 5710 5699 5690 5689 5693 5697 5703 5711 5718 5723 5729 5735 5740 5744 5748 5750 5753 5757 5764 5771 5779 5784 5787 5790 5795 5802 5808 5815 5820 5825 5828 5830 5832
5790 5790 5789 5789 5788 5785 5782 5779 5777 5771 5766 5760 5752 5742 5732 5722 5714 5704 5698 5696 5696 5699 5704 5710 5717 5722 5728 5733 5737 5738 5742 5746 5749 5751 5758 5766 5773 5780 5782 5785 5791 5798 5804 5810 5816 5819 5822 5825 5826
5786 5785 5785 5784 5783 5781 5778 5776 5773 5769 5764 5757 5750 5740 5731 5722 5717 5711 5706 5704 5702 5703 5706 5711 5717 5721 5726 5729 5732 5733 5737 5743 5745 5749 5757 5763 5767 5773 5777 5781 5786 5792 5799 5805 5809 5813 5816 5817 5820
5781 5781 5780 5780 5778 5777 5774 5773 5770 5766 5761 5755 5749 5741 5732 5724 5718 5713 5710 5709 5709 5709 5711 5714 5717 5721 5724 5728 5729 5728 5734 5737 5743 5748 5753 5759 5762 5768 5774 5778 5783 5788 5794 5798 5802 5804 5808 5811 5812
5777 5776 5776 5776 5774 5773 5770 5769 5767 5763 5758 5754 5748 5741 5734 5726 5721 5715 5713 5712 5713 5713 5714 5716 5717 5718 5720 5725 5727 5728 5732 5737 5741 5746 5750 5757 5761 5764 5770 5774 5780 5784 5787 5792 5796 5799 5802 5803 5805
5772 5773 5772 5771 5771 5769 5766 5766 5764 5760 5756 5752 5747 5742 5736 5729 5724 5719 5716 5715 5716 5717 5718 5718 5718 5720 5722 5725 5726 5728 5731 5734 5737 5743 5749 5753 5756 5761 5765 5770 5774 5779 5784 5787 5790 5793 5795 5796 5797
5768 5768 5768 5767 5766 5764 5763 5762 5760 5757 5754 5750 5746 5742 5738 5733 5727 5723 5720 5719 5720 5721 5722 5722 5723 5724 5726 5728 5728 5729 5730 5732 5736 5742 5747 5750 5756 5758 5762 5766 5770 5773 5777 5780 5783 5785 5787 5788 5789
5761 5763 5763 5762 5762 5761 5760 5758 5757 5754 5751 5748 5745 5742 5738 5734 5731 5726 5723 5722 5721 5722 5723 5724 5726 5727 5727 5728 5730 5731 5733 5734 5738 5740 5744 5748 5752 5756 5758 5762 5766 5768 5771 5774 5776 5778 5780 5780 5781
5756 5757 5758 5758 5758 5757 5756 5755 5754 5751 5749 5746 5743 5741 5739 5735 5733 5729 5727 5725 5723 5723 5724 5725 5727 5728 5729 5730 5731 5732 5734 5735 5738 5738 5741 5746 5750 5754 5757 5758 5761 5764 5766 5768 5769 5771 5772 5772 5772
5749 5751 5753 5754 5755 5754 5753 5752 5750 5748 5746 5744 5742 5741 5738 5736 5734 5731 5730 5728 5726 5725 5725 5726 5727 5728 5729 5730 5732 5734 5736 5736 5736 5737 5740 5743 5745 5749 5752 5755 5757 5759 5760 5761 5763 5764 5765 5764 5763
Wind_Speed
12 11 11 11 10 11 13 11 10 11 12 14 16 18 20 21 20 22 24 25 26 26 26 25 26 28 25 22 20 19 19 18 18 16 15 14 14 13 13 12 11 11 9 8 6 5 4 3 3
12 11 10 11 11 13 13 14 13 13 14 15 17 20 22 24 25 25 26 27 30 29 28 29 27 29 30 27 24 22 20 20 20 18 16 15 15 15 14 14 13 12 10 8 7 6 6 5 4
12 12 10 11 14 15 15 15 14 14 15 17 19 22 24 28 31 32 31 31 31 34 34 32 32 30 31 31 28 25 23 21 21 20 18 17 16 16 16 16 15 13 11 9 8 7 8 7 6
13 12 12 12 15 14 15 16 16 17 18 20 22 25 27 30 34 36 38 37 35 35 38 37 34 32 34 33 32 29 26 24 23 21 20 18 18 17 18 18 16 14 12 10 9 8 8 8 7
15 12 12 13 16 15 15 16 18 20 21 23 26 29 32 35 36 39 40 39 38 37 39 41 40 34 34 36 33 33 30 27 26 24 23 21 20 19 19 19 17 15 13 12 11 10 10 9 8
12 10 12 15 16 16 17 17 19 21 25 28 30 33 35 36 39 41 41 41 39 38 40 41 43 38 35 36 36 35 34 32 30 28 26 24 22 22 21 20 17 16 15 14 13 12 11 10 9
9 11 13 15 16 17 20 19 19 23 28 31 34 36 37 37 37 39 40 41 41 38 39 42 42 42 37 34 33 36 37 36 34 32 30 27 26 24 24 22 18 17 16 15 14 13 12 11 9
11 11 12 15 18 21 21 19 22 28 31 31 33 34 35 36 37 37 39 42 40 38 37 41 43 44 37 38 31 30 35 38 39 38 36 32 30 28 27 26 22 18 17 16 15 13 13 12 11
11 11 13 17 21 22 22 22 26 30 31 32 31 32 34 35 34 37 41 42 39 37 37 37 43 44 37 42 39 33 37 33 42 43 41 36 34 32 31 30 26 22 19 17 16 15 14 14 12
10 12 16 20 23 23 23 25 29 31 30 31 32 33 34 33 29 34 39 41 41 39 40 40 41 43 40 35 36 39 39 43 38 46 40 40 39 37 34 33 30 27 23 20 18 16 15 16 14
11 13 18 22 23 23 24 27 29 31 31 32 35 34 34 34 30 28 30 36 40 43 42 40 41 43 44 47 39 40 39 32 42 43 35 47 43 39 37 36 34 30 26 23 20 18 18 17 16
12 16 21 23 23 24 26 28 30 32 32 34 35 34 35 36 31 29 29 30 32 35 41 44 40 43 43 44 46 47 47 52 31 23 39 41 48 42 41 37 36 32 28 26 23 21 20 18 17
14 19 22 24 23 25 27 28 30 32 33 35 34 33 32 33 30 32 31 32 32 30 34 42 43 41 44 43 43 50 51 56 54 35 28 36 32 43 46 41 38 34 32 28 26 24 23 21 20
17 19 22 23 24 26 27 29 30 32 33 36 34 31 32 33 31 33 37 35 34 33 31 34 42 44 41 43 45 44 50 57 56 58 55 29 31 39 53 41 40 36 34 31 29 27 25 24 22
19 20 23 23 25 26 28 29 29 32 34 36 34 33 34 35 36 32 32 36 38 35 33 33 36 41 43 44 42 44 45 47 55 56 63 59 36 32 44 45 41 38 35 34 31 29 27 25 24
20 22 23 23 25 27 28 30 30 32 35 35 35 36 37 39 40 38 33 32 35 38 36 34 33 37 41 42 40 40 42 46 48 47 51 50 48 38 45 47 44 40 37 35 34 32 30 28 26
22 23 23 24 25 27 28 29 31 33 34 35 36 36 38 40 38 36 34 31 36 37 37 36 33 34 37 38 36 36 40 42 46 45 44 49 44 48 49 51 48 42 39 36 34 32 30 29 27
23 24 24 25 24 27 28 29 30 31 33 35 36 37 40 40 40 39 39 40 35 38 34 36 35 33 34 36 33 33 33 35 43 42 40 43 44 49 53 46 48 43 39 37 34 33 32 30 29
24 23 23 24 24 25 27 29 31 30 32 35 37 38 40 39 39 37 35 34 31 28 31 33 35 30 30 32 31 30 28 27 32 36 35 43 38 49 52 45 47 44 40 38 36 34 32 32 32
21 22 23 23 24 25 25 28 29 30 31 34 35 35 35 32 34 31 16 17 24 21 28 31 29 28 26 30 27 25 22 19 27 29 33 38 38 47 48 46 45 43 40 36 34 33 34 34 32
20 20 21 22 22 24 25 25 26 27 29 31 33 34 31 25 25 21 13 3 9 17 25 23 26 27 27 28 23 21 19 11 10 22 30 35 35 43 47 49 49 46 40 34 34 35 37 35 36
19 20 20 20 19 23 24 26 24 25 26 28 31 31 26 19 18 16 13 7 13 18 21 25 26 23 26 26 25 24 22 16 15 14 18 34 46 43 44 42 40 40 40 36 38 39 38 37 35
17 19 19 18 18 20 23 23 23 22 24 26 29 28 24 14 12 15 11 7 12 19 22 24 20 23 27 29 27 24 23 17 27 38 27 35 37 48 40 37 37 37 36 39 40 39 38 37 37
15 17 17 16 18 19 21 21 20 19 21 23 25 25 22 16 11 11 11 7 10 15 16 15 18 22 26 29 30 24 15 15 19 42 24 39 43 46 41 38 44 41 40 39 40 42 40 39 39
16 16 16 16 16 18 19 18 17 16 17 19 21 22 21 15 12 13 11 9 9 12 13 12 16 19 25 25 26 21 19 17 16 20 25 40 45 46 36 33 38 32 36 43 43 37 40 40 39
17 17 16 15 15 16 18 17 15 14 14 16 17 19 20 16 13 15 14 11 9 11 9 10 14 12 15 13 12 14 20 19 21 19 22 20 22 27 25 29 32 40 43 41 41 40 42 43 44
17 16 16 15 15 15 16 15 12 11 11 13 14 16 17 17 13 12 14 14 12 9 5 6 7 9 12 12 9 5 5 12 16 20 18 9 27 22 12 27 33 36 35 41 39 43 49 48 43
19 18 15 14 13 12 14 14 9 8 9 9 12 13 14 16 15 12 10 10 10 10 10 10 8 6 9 11 12 11 13 15 15 12 11 15 15 18 16 17 23 24 25 26 37 43 42 42 43
23 18 16 15 12 10 12 14 8 6 7 7 9 10 11 13 13 14 11 8 7 6 7 7 8 9 10 10 9 11 14 16 19 19 23 23 21 21 23 27 29 26 27 30 31 33 38 41 41
26 20 19 17 14 14 13 13 6 5 4 5 5 7 9 10 11 12 11 11 7 5 5 7 5 2 2 2 4 3 7 10 12 14 20 21 25 23 27 28 28 32 33 33 35 37 38 42 43
Wind_Direction
248 244 253 262 263 262 269 279 278 283 286 286 288 288 289 288 284 281 281 281 276 267 262 262 256 250 246 233 231 237 234 229 225 217 218 222 225 225 225 222 215 203 201 205 210 221 218 207 191
245 250 255 263 265 265 274 279 282 282 282 285 286 287 289 290 288 283 278 274 274 273 266 257 253 252 247 244 233 231 233 233 235 224 220 222 224 226 226 221 210 207 211 215 225 232 232 227 216
255 261 262 262 266 272 279 279 281 282 285 287 289 291 294 296 294 293 287 280 272 269 267 263 252 248 247 243 240 232 231 234 233 233 224 220 219 221 218 215 210 210 215 220 229 235 236 227 220
260 265 266 265 270 277 280 281 284 280 279 285 289 289 288 288 286 286 284 280 274 266 265 262 258 248 246 243 239 234 232 232 235 237 229 224 216 216 215 212 211 212 214 216 221 231 235 221 208
264 268 265 270 277 278 278 280 277 278 283 287 289 288 284 281 279 277 278 277 272 264 260 261 257 251 246 245 238 237 233 232 232 235 235 227 223 216 217 214 212 212 216 217 217 222 231 225 222
264 260 271 274 275 280 280 275 273 283 286 286 284 281 282 284 282 279 276 274 269 261 257 256 258 251 244 244 242 236 235 232 230 232 233 232 227 224 220 218 214 210 210 215 217 218 229 232 221
258 267 271 276 281 281 275 273 279 279 281 286 286 287 290 291 287 281 275 269 265 258 254 252 250 253 247 242 241 240 236 235 233 231 230 231 226 224 224 220 217 213 208 212 216 217 220 225 219
261 263 273 282 283 278 275 275 276 277 281 284 288 292 298 297 292 285 274 264 260 255 249 248 248 251 247 239 230 239 241 240 235 233 232 227 227 223 222 221 217 216 208 211 214 214 216 216 217
256 269 284 283 280 276 275 273 275 281 287 291 296 301 302 299 290 279 271 267 261 253 247 244 246 242 242 242 234 228 230 244 235 235 233 230 227 224 222 221 218 217 214 217 216 212 216 216 220
259 276 284 283 279 275 277 275 278 286 293 299 303 307 308 302 286 275 269 266 262 258 251 246 242 242 234 232 239 227 232 234 247 229 231 230 230 225 223 221 219 218 219 219 217 216 219 224 225
263 276 282 284 279 279 281 279 284 293 300 305 310 314 312 304 291 274 268 264 261 256 253 252 245 243 237 230 226 226 226 220 254 258 247 231 229 228 223 221 220 219 218 223 223 219 221 226 231
271 280 279 282 282 283 284 283 290 297 303 310 314 317 314 307 294 279 268 262 258 254 251 248 246 241 240 237 233 230 223 223 221 231 244 246 232 227 224 221 221 221 218 220 224 226 228 230 232
275 280 277 279 284 283 285 287 294 300 309 313 317 318 312 303 289 278 266 262 254 248 245 246 243 241 239 239 238 232 231 236 241 230 211 216 232 233 221 219 220 220 222 221 223 227 231 235 239
274 280 282 281 283 285 289 292 295 302 311 314 320 318 311 303 290 274 268 260 256 248 244 239 240 242 242 242 242 239 237 238 237 250 233 239 225 233 215 215 220 219 221 221 223 227 232 236 239
275 282 283 283 285 287 291 294 301 308 314 318 323 319 313 305 293 281 267 256 254 250 244 241 232 235 241 242 242 246 245 250 246 251 251 248 229 238 215 209 220 220 220 221 222 224 228 234 241
276 281 280 282 285 288 294 300 305 313 318 324 325 322 315 307 298 289 272 260 253 248 245 240 237 235 235 240 242 246 250 247 252 254 254 252 262 246 223 211 217 219 220 220 222 225 230 235 239
275 278 278 281 286 290 298 305 311 316 321 326 327 324 317 308 302 292 279 262 250 248 242 239 234 235 235 234 237 249 250 248 249 253 258 255 259 251 237 225 213 220 220 219 221 223 228 234 238
274 274 275 280 286 292 300 305 313 317 325 328 331 329 322 314 305 293 275 268 253 238 236 232 229 227 233 232 237 244 242 246 248 250 256 253 250 258 222 213 212 216 220 220 220 222 227 233 238
270 269 272 279 285 292 301 308 315 319 327 330 337 336 329 321 315 310 286 261 251 238 226 222 222 221 227 229 234 237 229 238 253 256 256 246 248 219 214 206 209 213 219 220 219 222 226 233 236
267 269 273 279 285 294 304 309 314 322 329 334 343 341 335 331 334 335 309 254 238 237 212 215 213 214 222 225 231 233 222 223 237 249 244 242 235 223 222 219 206 210 216 220 222 224 229 234 240
268 271 274 277 284 294 302 309 316 323 330 338 347 347 344 349 357 2 21 138 209 194 198 204 196 204 212 215 222 219 212 189 226 225 230 233 230 218 219 217 208 207 211 219 227 228 231 236 242
265 267 270 275 283 291 300 310 319 324 331 339 352 355 349 2 11 38 54 104 148 163 181 183 186 198 204 203 213 213 194 190 209 191 216 236 243 226 214 214 211 218 219 219 226 231 235 240 246
266 267 269 273 281 290 299 308 318 324 331 341 356 3 355 3 6 24 41 93 146 163 170 174 185 192 196 194 210 202 165 191 191 180 211 235 227 213 209 215 215 213 221 223 228 232 238 242 246
265 266 268 271 281 290 297 306 318 324 332 343 359 11 2 10 14 21 37 63 141 159 155 170 183 188 197 196 201 200 195 175 185 195 219 216 213 209 201 218 215 215 220 224 231 234 238 241 246
267 265 266 270 281 290 294 302 314 324 331 344 1 16 15 15 32 49 53 77 134 149 157 169 184 200 197 199 214 207 194 175 183 204 206 219 226 226 214 214 209 214 220 229 229 235 241 241 253
263 263 264 271 280 286 291 299 312 326 328 344 360 19 30 24 38 62 67 89 125 147 151 158 174 190 189 203 151 160 172 164 172 193 192 207 197 212 210 209 226 224 228 229 234 242 240 250 252
253 258 263 273 283 289 288 295 308 320 327 345 355 16 35 46 40 59 82 88 97 124 121 151 185 199 202 205 214 195 161 149 164 168 210 222 204 192 190 216 233 231 234 235 246 247 249 249 254
248 251 256 268 278 282 287 291 298 316 329 344 353 8 28 46 62 60 66 89 111 119 128 138 151 188 208 204 207 212 224 213 200 202 205 214 214 216 207 221 226 209 223 236 239 242 243 253 256
237 242 252 263 268 271 283 286 289 307 331 341 355 0 16 36 57 76 78 79 90 115 133 152 167 177 201 226 231 229 234 226 224 211 205 204 203 204 210 212 215 237 237 242 241 241 243 248 250
228 232 243 253 254 265 273 279 283 298 325 336 353 1 9 24 37 65 90 97 98 102 119 120 124 152 221 264 218 206 223 236 245 234 218 219 212 211 213 215 224 233 234 239 243 242 246 249 250